Regional Weather Roundup
Issued by NWS

Home | Current Version | Previous Version | Graphics & Text | Print | Product List | Glossary On
Versions: 1 2 3 4 5 6 7 8 9 10 11 12 13 14 15 16 17 18 19 20 21 22 23 24 25 26 27 28 29 30 31 32 33 34 35 36 37 38 39 40 41 42 43 44 45 46 47 48 49 50
000
ASUS43 KIND 141459
RWRIN

WEATHER ROUNDUP FOR INDIANA
NATIONAL WEATHER SERVICE INDIANAPOLIS IN
1100 AM EDT SUN SEP 14 2014

NOTE: "FAIR" INDICATES FEW OR NO CLOUDS BELOW 12,000 FEET WITH NO
SIGNIFICANT WEATHER AND/OR OBSTRUCTIONS TO VISIBILITY.

* - STATION DOES NOT REPORT WEATHER SUCH AS PRECIPITATION OR FOG.

+ - STATION NOT QUALITY CONTROLLED BY THE NATIONAL WEATHER SERVICE.
    USE DATA WITH CAUTION...ESPECIALLY DEWPOINT AND RELATIVE
    HUMIDITY OBSERVATIONS.

INZ001>003-010>013-019-020-141600-
NORTHWEST INDIANA

CITY           SKY/WX    TMP DP  RH WIND       PRES   REMARKS
GARY /AIRPORT/ MOSUNNY   57  45  62 S7        30.33S
VALPARAISO     CLOUDY    54  48  80 CALM      30.34R

$$

LMZ046-743>745-141600-
SOUTHERN LAKE MICHIGAN

STATION/POSITION TIME  TEMP WIND        PRES
                       AIR  DIR/SP/G
                 (UTC) (F)  (DEG/KT/KT) (MB)
MICHIGAN CITY    1400   53  150/  5/  6   N/A

$$

INZ004-005-014>016-021>024-141600-
NORTH CENTRAL INDIANA

CITY           SKY/WX    TMP DP  RH WIND       PRES   REMARKS
ELKHART        PTSUNNY   55  46  71 SW6       30.34S
GOSHEN         CLOUDY    57  48  72 VRB3      30.33R
SOUTH BEND     CLOUDY    56  46  69 S6        30.34S

$$

INZ006>009-017-018-025>027-141600-
NORTHEAST INDIANA

CITY           SKY/WX    TMP DP  RH WIND       PRES   REMARKS
ANGOLA *+      CLOUDY    55  46  71 VRB6      30.33S
FORT WAYNE     PTSUNNY   56  50  80 VRB5      30.34S

$$

INZ028-029-035-036-043>045-051>053-141600-
WEST CENTRAL INDIANA

CITY           SKY/WX    TMP DP  RH WIND       PRES   REMARKS
GREENCASTLE +  SUNNY     59  45  58 E5        30.33S
LAFAYETTE      MOSUNNY   57  47  69 CALM      30.34R
TERRE HAUTE    SUNNY     59  47  64 E5        30.33R

$$

INZ030>032-037>040-046>048-054>057-064-065-141600-
CENTRAL INDIANA

CITY           SKY/WX    TMP DP  RH WIND       PRES   REMARKS
INDIANAPOLIS   MOSUNNY   58  46  64 CALM      30.32S
-EAGLE CREEK   SUNNY     59  45  59 SE3       30.32S
KOKOMO *+      SUNNY     57  48  72 S6        30.33S
MT COMFORT *+  SUNNY     59  45  58 CALM      30.32F
SHELBYVILLE    SUNNY     61  49  64 CALM      30.32R

$$

INZ033-034-041-042-049-050-058-059-141600-
EAST CENTRAL INDIANA

CITY           SKY/WX    TMP DP  RH WIND       PRES   REMARKS
MUNCIE         PTSUNNY   58  47  66 SE6       30.33S

$$

INZ060-061-067>069-081>083-085>088-141600-
SOUTHWEST INDIANA

CITY           SKY/WX    TMP DP  RH WIND       PRES   REMARKS
EVANSVILLE     SUNNY     60  49  66 CALM      30.31S

$$

INZ062-063-066-070>080-084-089>092-141600-
SOUTH CENTRAL AND SOUTHEAST INDIANA

CITY           SKY/WX    TMP DP  RH WIND       PRES   REMARKS
BLOOMINGTON    SUNNY     59  46  62 CALM      30.32S

$$




USA.gov is the U.S. government's official web portal to all federal, state and local government web resources and services.